Weather History for Massena, NY

Change the Weather History Date:

Tuesday, February 5, 2013

  Actual Average Record
Temperature  
Mean Temperature 2 °F 16 °F  
Max Temperature 20 °F 26 °F 52 °F (1962)
Min Temperature -16 °F 5 °F -27 °F (1978)
Degree Days  
Heating Degree Days 63 49  
Month to date heating degree days 290 249  
Since 1 July heating degree days 4498 4912  
Moisture  
Dew Point -6 °F    
Average Humidity 63    
Maximum Humidity 91    
Minimum Humidity 35    
Precipitation  
Precipitation T in 0.06 in 0.66 in (1971)
Month to date precipitation 0.04 0.29  
Year to date precipitation 1.48 2.47  
Sea Level Pressure  
Sea Level Pressure 30.00 in    
Wind  
Wind Speed 2 mph (East)    
Max Wind Speed 8 mph    
Max Gust Speed 10 mph    
Visibility 10 miles    
Events      
T = Trace of Precipitation, MM = Missing Value Source: NWS Daily Summary

Daily Weather History Graph

Daily Weather History Graph

Search for Another Location

Airport:

Trip Planner

Search our weather history database for the weather conditions in past years. The results will help you decide how hot, cold, wet, or windy it might be!

Date:

Astronomy

Feb. 05, 2013 Rise Set
Actual Time 7:13 AM EST 5:13 PM EST
Civil Twilight 6:42 AM EST 5:44 PM EST
Nautical Twilight 6:08 AM EST 6:19 PM EST
Astronomical Twilight 5:33 AM EST 6:53 PM EST
Moon 2:57 AM EST (2/5) 12:23 PM EST (2/5)
Length of Visible Light 11h 01m
Length of Day
9h 59m
Waning Crescent, 27% of the Moon is Illuminated
Feb 5
Waning Crescent
Feb 10
New
Feb 17
First Quarter
Feb 25
Full
Mar 4
Last Quarter

Hourly Weather History & Observations

Time (EST) Temp. Windchill Dew Point Humidity Pressure Visibility Wind Dir Wind Speed Gust Speed Precip Events Conditions
12:53 AM -8.0 °F - -11.0 °F 86% 30.02 in 10.0 mi Calm Calm - N/A   Clear
1:53 AM -9.9 °F - -15.0 °F 78% 30.04 in 10.0 mi Calm Calm - N/A   Clear
2:53 AM -11.0 °F - -16.1 °F 78% 30.04 in 10.0 mi Calm Calm - N/A   Clear
3:53 AM -13.0 °F - -18.0 °F 78% 30.04 in 10.0 mi Calm Calm - N/A   Clear
4:53 AM -14.1 °F - -18.0 °F 82% 30.05 in 10.0 mi Calm Calm - N/A   Clear
5:53 AM -14.1 °F - -18.9 °F 79% 30.05 in 10.0 mi Calm Calm - N/A   Clear
6:53 AM -15.0 °F - -20.0 °F 78% 30.06 in 10.0 mi Calm Calm - N/A   Clear
7:53 AM -14.1 °F - -16.1 °F 91% 30.07 in 10.0 mi Calm Calm - N/A   Clear
8:53 AM -6.0 °F - -9.9 °F 83% 30.07 in 10.0 mi Calm Calm - N/A   Clear
9:53 AM 1.9 °F - -2.9 °F 80% 30.08 in 10.0 mi Calm Calm - N/A   Clear
10:53 AM 10.0 °F - -0.0 °F 64% 30.07 in 10.0 mi Calm Calm - N/A   Clear
11:53 AM 14.0 °F 5.1 °F -2.0 °F 49% 30.04 in 10.0 mi South 5.8 mph - N/A   Clear
12:53 PM 16.0 °F 7.4 °F -2.9 °F 43% 30.01 in 10.0 mi SW 5.8 mph - N/A   Clear
1:53 PM 17.1 °F 10.0 °F -4.0 °F 39% 30.00 in 10.0 mi West 4.6 mph - N/A   Clear
2:53 PM 19.0 °F - -4.0 °F 36% 29.98 in 10.0 mi Calm Calm - N/A   Partly Cloudy
3:53 PM 19.0 °F - -4.0 °F 36% 29.98 in 10.0 mi Calm Calm - N/A   Overcast
4:53 PM 17.1 °F 7.6 °F -0.9 °F 45% 29.96 in 10.0 mi ENE 6.9 mph - N/A   Overcast
5:53 PM 15.1 °F 6.4 °F -0.0 °F 51% 29.96 in 10.0 mi ENE 5.8 mph - N/A   Mostly Cloudy
6:53 PM 14.0 °F 6.5 °F 1.9 °F 59% 29.96 in 10.0 mi ENE 4.6 mph - N/A   Overcast
7:53 PM 14.0 °F 6.5 °F 1.9 °F 59% 29.95 in 10.0 mi ENE 4.6 mph - N/A   Overcast
8:53 PM 12.9 °F 6.9 °F 3.0 °F 65% 29.94 in 10.0 mi NE 3.5 mph - N/A   Overcast
9:53 PM 12.9 °F - 5.0 °F 71% 29.94 in 10.0 mi Calm Calm - N/A   Overcast
10:53 PM 14.0 °F 6.5 °F 6.1 °F 71% 29.91 in 10.0 mi SSW 4.6 mph - N/A   Overcast
11:53 PM 14.0 °F 8.2 °F 6.1 °F 71% 29.90 in 10.0 mi ESE 3.5 mph - 0.00 in   Overcast